Date,TemperatureHighF,TemperatureAvgF,TemperatureLowF,DewpointHighF,DewpointAvgF,DewpointLowF,HumidityHigh,HumidityAvg,HumidityLow,PressureMaxIn,PressureMinIn,WindSpeedMaxMPH,WindSpeedAvgMPH,GustSpeedMaxMPH,PrecipitationSumIn
2013-6-1,59.9,53.1,48.0,46.0,44.0,42.4,87,72,56,29.68,29.65,4,1,4,0.00
2013-6-2,55.2,49.4,46.6,47.5,44.5,40.0,95,84,63,29.71,29.56,4,1,6,0.36
2013-6-3,62.4,52.7,45.5,41.4,37.6,33.2,77,58,43,29.56,29.27,6,1,6,0.00
2013-6-4,67.1,53.7,45.5,43.9,37.6,30.8,83,56,38,29.33,29.18,4,2,8,0.00
2013-6-5,68.5,52.4,37.4,41.2,34.7,29.1,84,53,35,29.44,29.33,4,1,6,0.00
2013-6-6,71.6,57.1,41.0,41.9,36.2,29.8,71,47,33,29.44,29.18,6,2,8,0.00
2013-6-7,79.0,58.3,40.8,47.3,41.6,34.4,84,57,32,29.44,29.21,5,1,7,0.00
2013-6-8,75.4,61.8,44.8,46.8,43.3,37.7,84,54,35,29.59,29.44,6,1,6,0.00
2013-6-9,82.0,64.8,46.8,51.0,44.2,38.8,85,51,23,29.68,29.59,4,1,7,0.00
2013-6-10,79.7,64.2,46.9,48.5,44.3,38.1,82,52,31,29.74,29.53,4,1,7,0.00
2013-6-11,81.3,66.5,53.8,47.5,45.0,40.2,74,49,30,29.62,29.44,7,2,13,0.00
2013-6-12,82.9,66.8,52.0,48.5,41.0,34.7,69,41,25,29.50,29.42,4,1,6,0.00
2013-6-13,77.5,63.9,50.0,48.5,42.9,35.5,71,48,34,29.65,29.47,4,1,6,0.00
2013-6-14,75.9,62.0,45.1,49.2,44.5,40.3,90,56,35,29.74,29.65,5,1,6,0.00
2013-6-15,77.7,62.0,45.9,53.1,47.7,41.6,88,63,41,29.80,29.74,4,1,6,0.00
2013-6-16,73.6,54.2,51.3,50.9,49.1,46.9,90,84,45,29.74,29.71,4,2,4,0.00
2013-6-17,58.3,55.9,54.3,51.6,48.0,45.6,83,75,66,29.71,29.59,2,0,3,0.00
2013-6-18,76.1,74.6,73.8,40.7,35.5,32.7,30,24,22,29.59,29.36,10,6,13,0.00
2013-6-19,59.2,57.1,54.3,44.4,41.1,39.9,69,55,49,29.44,29.42,1,0,1,0.00
2013-6-20,54.7,49.4,46.9,43.9,41.5,40.6,80,74,65,29.50,29.42,0,0,0,0.00
2013-6-21,51.3,50.1,46.9,46.3,45.3,41.4,84,84,81,29.56,29.50,0,0,0,0.00
2013-6-22,70.3,53.4,42.1,46.7,42.7,39.5,93,71,41,29.56,29.42,3,1,4,0.00
2013-6-23,69.8,52.7,50.4,45.0,38.3,35.8,64,58,41,29.42,29.24,4,1,4,0.00
2013-6-24,54.3,53.2,52.3,44.6,42.4,40.0,74,67,59,29.24,29.15,1,0,2,0.00
2013-6-25,54.3,51.7,50.5,49.1,48.0,43.6,90,87,67,29.18,29.12,1,0,1,0.00
2013-6-26,57.9,55.8,50.5,52.8,51.4,47.4,89,85,82,29.18,29.12,0,0,0,0.00
2013-6-27,58.3,55.3,53.8,51.3,48.4,47.8,89,77,70,29.44,29.15,0,0,0,0.00
2013-6-28,60.4,59.3,53.8,54.2,53.5,48.7,83,81,75,29.62,29.44,1,0,2,0.00
2013-6-29,55.6,55.2,55.0,53.4,53.2,53.0,94,93,91,29.62,29.59,0,0,2,0.00
2013-6-30,58.5,56.5,54.9,53.2,52.0,51.3,94,85,79,29.59,29.53,1,0,1,0.00